Location: Domicella
(40.8833°N, 14.5833°E)
Time: 07:26:31
(UTC+00:00)

MOS 1 - Pass Details

Date: 15 May 2026
Orbit: 877 x 888 km, 98.8° (Epoch: 5 June)

Event Time Altitude Azimuth Distance (km) Brightness Sun altitude
Exits shadow 19:11:37 - 162° (SSE) 2,846 6.5 -10.4°
Reaches altitude 10° 19:12:24 10° 162° (SSE) 2,537 6.2 -10.5°
Maximum altitude 19:18:04 85° 75° (ENE) 895 4.3 -11.3°
Drops below altitude 10° 19:23:47 10° 347° (NNW) 2,560 7.5 -12.2°
Sets 19:26:11 0° 347° (NNW) 3,504 8.3 -12.5°
